Regional Weather Roundup
Issued by NWS

Home | Current Version | Previous Version | Graphics & Text | Print | Product List | Glossary On
Versions: 1 2 3 4 5 6 7 8 9 10 11 12 13 14 15 16 17 18 19 20 21 22 23 24 25 26 27 28 29 30 31 32 33 34 35 36 37 38 39 40 41 42 43 44 45 46 47 48 49 50
000
ASUS45 KCYS 200710
RWRWY

WYOMING REGIONAL WEATHER ROUNDUP
NATIONAL WEATHER SERVICE CHEYENNE WY
100 AM MDT WED AUG 20 2014

NOTE:  "FAIR" INDICATES FEW OR NO CLOUDS BELOW 12,000 FEET
WITH NO SIGNIFICANT WEATHER AND/OR OBSTRUCTIONS TO VISIBILITY.

WYZ001-200800-
YELLOWSTONE NATIONAL PARK

CITY           SKY/WX    TMP DP  RH WIND       PRES   REMARKS
LK YELLOWSTONE   N/A     47  43  86 CALM      30.11F
W YELLOWSTONE  NOT AVBL

$$
WYZ002>013-054>058-071-098>099-200800-
NORTHERN WYOMING

CITY           SKY/WX    TMP DP  RH WIND       PRES   REMARKS
JACKSON        CLOUDY    54  50  87 S7        30.06S
CODY           CLOUDY    66  46  48 SW13      29.88S
GREYBULL       LGT RAIN  74  47  38 NW13      29.78R
WORLAND        LGT RAIN  68  51  54 NW15      29.79R
SHERIDAN       CLOUDY    68  48  48 S7        29.74S
BUFFALO        CLOUDY    70  42  36 VRB5      29.81F
GILLETTE       CLOUDY    76  44  32 SW21G29   29.75S
HULETT         FAIR      73  48  40 MISG      29.77
NEWCASTLE      FAIR      72  52  49 SE7       29.80

$$
WYZ014>020-022>026-101>103-200800-
CENTRAL WYOMING

CITY           SKY/WX    TMP DP  RH WIND       PRES   REMARKS
BIG PINEY      MOCLDY    50  43  77 CALM      30.05S
PINEDALE       PTSUNNY   52  45  76 NW10      30.06R
DUBOIS         CLOUDY    50  43  76 NW10      30.04S
LANDER         CLOUDY    65  43  44 W6        29.88R
RIVERTON       CLOUDY    66  42  41 NW15      29.87S
CASPER         CLOUDY    67  47  48 SW13      29.88F
DOUGLAS        CLOUDY    69  49  48 W3        29.87S

$$
WYZ021-027>030-104>119-200800-
SOUTHERN WYOMING

CITY           SKY/WX    TMP DP  RH WIND       PRES   REMARKS
EVANSTON       CLOUDY    53  50  89 S6        30.06S
KEMMERER       CLOUDY    50  45  81 NW6       30.07S
FORT BRIDGER   PTSUNNY   55  50  84 W8        30.08S
ROCK SPRINGS   MOCLDY    53  49  86 S6        30.03S
DIXON          RAIN      57  54  92 CALM      30.08F
RAWLINS        CLOUDY    61  50  67 S16G25    30.03R
SARATOGA       LGT RAIN  55  52  88 MISG      30.08R
LARAMIE        LGT RAIN  55  52  89 SW12      30.06R
CHEYENNE       CLOUDY    60  52  74 W7        29.97S
TORRINGTON     MOCLDY    67  53  61 E7        29.82S
PINE BLUFFS    FAIR      59  52  77 SW6       29.91F

$$


USA.gov is the U.S. government's official web portal to all federal, state and local government web resources and services.